Orbital Elements at Epoch 2459000.5 (2020-May-31.0) TDB
Reference: JPL 16 (heliocentric ecliptic J2000)
Element | Value | Uncertainty (1-sigma) | Units |
e | .1502156408917966 | 6.4974e-08 | |
a | 2.572045458721624 | 1.3664e-08 | au |
q | 2.185684001736921 | 1.6095e-07 | au |
i | 14.36952442945671 | 5.0057e-06 | deg |
node | 59.2848288011539 | 1.7727e-05 | deg |
peri | 8.713474706100667 | 2.3403e-05 | deg |
M | 155.1573369060995 | 1.7923e-05 | deg |
tp | 2458351.138998002236 (2018-Aug-20.63899800) | 7.2236e-05 | TDB |
period | 1506.663915356265 4.13 | 1.2006e-05 3.287e-08 | d yr |
n | .2389384894207642 | 1.904e-09 | deg/d |
Q | 2.958406915706328 | 1.5716e-08 | au |
|
| | Orbit Determination Parameters
Additional Information
|